{"data":{"norad_id":32763,"epoch":"2026-09-19T21:39:38.598912Z","epoch_age_seconds":65962,"freshness":"FRESH","line1":"1 32763U 08016A   26262.90253008 -.00000174  00000+0  00000+0 0  9992","line2":"2 32763   5.5425  35.8307 0002276 133.5996  61.4542  1.00272765 67491","mean_motion":1.00272765,"eccentricity":0.0002276,"inclination_deg":5.5425,"raan_deg":35.8307,"arg_perigee_deg":133.5996,"mean_anomaly_deg":61.4542,"bstar":0,"rev_number":6749,"period_min":1436.0828685636,"perigee_km":35776.723603387,"apogee_km":35795.91686432,"semimajor_km":42164.457233853,"source":"CELESTRAK","updated_at":"2026-09-20T09:00:35.131902Z"}}